Find Starlink 36983

NORAD ID: 68323 Int'l Des: 2026-059 Owner: SPXS Country: US Constellation: starlink operational
LEOCIRCULAR

リアルタイム位置

3D地球を読み込み中...

Starlink 36983について

説明を読み込み中...

次回通過

Passes for default location (London). Set your location on the main map for personalized predictions.

高度履歴

Loading altitude history...

軌道要素

1 68323U 26059C 26127.16403150 .00049662 00000-0 89472-3 0 9992
2 68323 53.1593 74.8588 0002261 40.3670 319.7507 15.49326572 7150
Epoch: May 7, 2026 • Age: 12 hours

現在のステータス

高度 420.6 km
速度 7.66 km/s
衛星直下点 -10.76°S, 45.23°W
打ち上げ日 Mar 22, 2026
運用期間 0.1 years
タイプ internet

技術仕様

分類 Payload
質量 575.00 kg
乾燥質量 530.00 kg
総質量 575.00 kg
長さ 0.30 m
直径 4.10 m
スパン 29.00 m
形状 Box + pan
製造者 SPXS
バスタイプ Starlink V2MO
フェーズステータス In Orbit
所有者/国 SPXS/US

Most Searched